Location: Chavenne
(46.6022°N, 3.2951°E)
Time: 10:20:59
(UTC+00:00)

CZ-4C R/B - Pass Details

Date: 09 April 2020
Orbit: 637 x 1365 km, 63.4° (Epoch: 03 June)

Event Time Altitude Azimuth Distance (km) Brightness Sun altitude
Rises 19:00:28 0° 312° (NW) 3,547 6.9 -6.3°
Reaches altitude 10° 19:03:33 10° 329° (NNW) 2,733 5.7 -6.8°
Maximum altitude 19:08:24 21° 17° (NNE) 2,208 4.4 -7.6°
Drops below altitude 10° 19:13:51 10° 64° (ENE) 3,122 4.7 -8.5°
Enters shadow 19:16:37 - 76° (ENE) 3,892 5.1 -8.9°
